Wetbulb
59.16 59.35 59.37 59.43 59.65 59.73 59.86 59.90 59.92 60.05 60.25 60.05 60.08 60.31 60.73 60.90 60.25 64.42 62.38 69.47 72.90 76.11 75.54 75.53 74.11 74.54 74.00 71.89 71.66 71.32 62.86 60.39 63.03 62.17 65.25 68.41 66.53 68.37 69.22 67.29 67.89 68.26 67.98 69.60 71.08
59.03 59.11 59.21 59.23 59.41 59.51 59.59 59.54 59.70 59.75 59.75 59.65 59.81 60.36 60.65 60.73 60.74 59.93 69.03 76.05 74.96 76.03 72.55 71.45 71.87 73.95 69.77 68.97 69.56 68.30 62.71 63.31 66.36 67.50 66.72 67.83 67.08 67.15 66.48 66.13 66.15 66.07 69.44 70.14 70.85
58.07 58.46 58.54 58.78 58.91 58.86 59.07 59.32 59.37 59.47 59.07 59.28 59.59 60.03 60.67 60.99 59.06 62.49 72.74 76.10 75.47 75.89 73.18 72.55 73.24 71.74 66.97 69.46 67.76 67.44 64.82 66.77 67.66 69.57 68.89 67.55 67.07 68.27 67.05 65.66 67.11 65.46 67.45 68.81 69.57
57.86 57.90 58.11 58.11 58.33 58.37 58.61 58.71 58.68 58.63 58.71 58.91 59.33 59.79 60.67 60.69 54.07 71.16 73.56 75.86 75.75 75.22 73.53 71.39 71.35 67.65 68.19 65.36 66.64 63.70 66.23 67.56 68.75 70.07 68.90 66.99 68.64 66.37 68.06 67.12 69.14 68.61 68.60 68.51 68.45
57.47 57.54 57.62 57.78 57.93 58.23 58.37 58.46 58.38 58.27 58.40 58.69 59.25 59.67 61.42 54.96 57.56 73.99 74.58 75.76 74.18 73.65 70.14 69.37 69.35 67.28 63.20 64.85 67.00 65.13 65.84 67.48 68.82 69.29 69.75 69.84 67.68 67.67 67.95 68.25 69.55 69.54 68.57 67.87 67.74
57.29 57.56 57.35 57.58 57.75 57.94 58.08 58.15 58.05 58.12 58.53 58.74 59.17 58.92 59.57 51.64 59.41 69.66 71.16 73.05 71.59 71.71 69.27 68.92 66.48 67.29 66.51 65.59 64.96 67.97 67.08 67.70 68.80 68.75 69.42 67.83 67.74 68.26 68.63 68.68 67.91 67.51 67.06 67.63 67.81
57.35 57.40 57.35 57.43 57.35 57.45 57.66 57.45 57.68 58.64 59.98 59.02 59.49 61.13 56.75 53.35 63.07 66.39 71.36 71.38 71.92 70.98 67.89 68.35 68.12 66.48 67.03 64.69 68.44 67.34 65.16 66.91 67.65 68.25 67.69 68.80 65.47 65.12 69.38 68.90 65.95 66.01 67.34 68.07 68.12
57.26 57.12 57.17 56.89 56.87 56.91 56.82 56.76 57.95 60.37 59.37 59.24 59.48 60.98 54.42 57.08 59.02 62.40 68.30 70.11 71.60 71.30 69.78 68.82 67.74 65.53 64.95 68.03 67.16 64.62 64.48 60.87 66.22 67.41 67.90 66.92 59.32 67.70 69.94 68.68 65.12 66.37 67.22 68.35 68.94
57.19 56.97 56.80 56.59 56.21 55.96 56.26 56.16 58.79 59.60 59.35 59.60 61.32 58.50 52.21 56.35 53.68 57.26 65.23 66.64 68.44 69.13 69.13 70.05 66.19 63.49 64.61 62.63 60.77 62.02 56.87 60.48 60.85 66.51 67.14 65.67 61.07 67.72 69.57 68.88 66.39 66.67 67.06 68.13 69.08
56.90 56.73 55.68 55.96 55.88 55.81 55.81 55.98 59.26 59.71 61.22 62.53 59.83 53.83 54.39 52.17 55.18 55.72 59.49 61.59 61.67 64.52 62.95 65.15 63.27 60.87 61.57 61.30 54.79 57.46 58.75 57.29 60.26 63.91 64.68 63.87 62.91 66.64 68.44 68.17 66.87 67.11 66.79 67.87 68.54
56.35 55.60 55.28 55.55 55.57 55.41 56.49 60.43 57.23 57.30 58.55 53.73 53.85 53.19 53.91 55.42 57.06 55.40 56.76 56.06 57.78 58.33 56.56 61.56 57.60 55.83 58.91 61.28 61.11 60.71 59.47 58.22 60.51 63.11 63.46 62.96 63.35 64.65 67.70 66.73 66.33 66.65 66.62 67.23 68.25
55.65 55.48 55.54 55.21 54.88 54.84 57.76 56.28 55.77 56.53 51.73 55.01 53.53 53.41 54.86 55.88 51.72 54.13 57.11 52.08 52.62 52.37 56.81 57.38 54.65 57.93 60.29 60.49 59.99 59.11 58.81 58.18 59.95 62.84 62.49 62.39 61.98 64.51 67.65 67.53 66.33 66.75 67.20 67.27 67.99
55.80 55.43 55.12 54.59 54.39 58.00 57.93 56.64 59.76 59.02 52.82 52.58 52.51 52.32 53.11 53.98 51.02 52.06 54.82 52.97 50.58 51.67 54.07 54.27 56.87 58.53 58.27 58.36 58.05 60.04 58.45 58.12 58.21 60.96 62.54 60.87 59.64 61.51 65.38 68.18 68.46 68.47 69.18 69.17 67.79
55.17 55.07 54.53 53.70 54.91 59.06 58.23 58.89 60.21 58.88 48.77 48.30 50.54 52.74 54.21 54.08 50.05 54.86 56.14 53.39 50.74 49.21 52.75 54.77 57.69 57.15 56.31 56.81 58.63 56.07 60.85 59.93 57.73 58.23 54.43 61.65 52.86 60.73 63.03 65.08 67.37 68.76 68.23 68.37 69.03
55.18 54.80 54.39 52.92 59.37 57.82 57.52 60.10 59.52 57.11 41.84 49.19 50.80 56.37 54.47 52.00 52.45 52.43 55.46 53.58 49.13 49.51 50.90 51.71 54.72 55.11 55.01 55.96 58.67 57.15 60.16 59.82 59.25 57.24 57.22 58.17 54.86 58.40 63.44 62.20 65.25 67.41 69.01 68.89 70.80
54.66 53.86 53.86 59.80 60.99 57.93 59.92 59.80 57.21 47.09 39.58 46.22 50.28 50.43 50.47 51.87 50.86 52.37 51.53 53.68 53.57 49.99 51.01 51.18 56.91 56.68 56.67 57.75 58.19 59.98 58.42 57.89 59.29 56.75 52.27 56.49 55.98 56.61 60.54 62.78 64.59 67.56 68.49 70.01 70.28
53.69 53.26 57.53 61.39 57.24 61.09 60.88 56.68 47.30 42.91 48.60 46.05 47.70 50.09 49.43 48.24 49.25 50.09 48.90 48.42 46.64 45.15 45.59 48.91 50.82 56.00 57.42 55.63 58.11 57.63 56.02 51.00 50.10 50.59 49.92 57.09 55.11 56.63 61.22 62.95 65.11 66.74 68.70 70.03 70.96
52.62 52.53 59.56 61.37 62.47 61.40 58.94 51.78 42.65 45.67 46.07 50.02 48.91 48.79 46.43 48.28 48.81 48.31 48.16 46.43 49.30 48.49 46.62 44.90 44.44 52.31 56.38 56.22 55.07 54.94 55.45 51.32 46.82 48.52 50.83 56.70 52.34 56.83 61.85 63.45 64.99 67.35 69.20 69.94 70.15
51.30 61.55 61.52 62.20 62.07 61.13 54.55 47.17 45.64 46.21 48.35 47.22 47.87 46.21 46.43 47.76 48.03 48.35 48.16 46.67 48.69 49.59 46.04 45.45 45.95 53.28 55.48 56.28 56.05 54.62 52.53 56.97 53.58 54.63 51.53 53.80 56.98 60.47 62.11 61.92 63.88 65.41 67.62 69.03 69.42
61.36 59.47 60.23 60.87 61.41 58.90 52.85 43.72 48.46 49.90 49.69 49.55 45.25 47.22 44.77 46.19 47.00 47.75 47.67 49.87 48.94 51.55 51.84 49.03 45.28 50.83 52.71 55.83 55.85 54.83 57.12 51.61 53.23 47.97 47.21 51.72 52.96 55.00 59.24 60.44 62.15 64.48 65.85 68.42 69.88
60.65 56.20 60.10 60.79 60.05 55.43 49.06 49.23 49.38 51.40 50.79 48.38 47.35 46.64 47.05 45.79 47.55 47.10 47.29 50.32 51.62 51.35 52.28 49.53 48.10 48.57 52.38 51.69 51.06 52.40 52.54 54.41 54.13 52.54 48.50 48.06 51.93 59.94 60.11 61.75 62.03 63.10 64.73 66.72 69.15
58.88 53.42 60.29 60.19 52.96 54.24 51.29 49.92 46.62 49.83 51.31 49.96 49.85 48.47 47.55 47.56 46.35 47.18 46.38 49.31 52.09 52.59 49.19 51.26 48.08 45.52 48.73 53.05 54.23 53.51 52.91 53.86 50.04 49.58 51.62 51.38 51.96 59.44 61.99 62.57 62.83 63.75 67.48 67.57 67.82
56.92 55.57 60.27 57.69 49.49 51.24 51.28 49.20 49.40 48.54 48.70 48.01 46.84 48.52 49.25 47.20 44.82 47.26 48.75 51.48 51.75 51.04 50.88 53.35 47.58 42.48 45.32 50.09 51.82 49.67 51.65 52.81 53.84 53.71 51.10 48.66 51.11 61.02 62.20 63.15 64.87 66.75 68.35 68.66 69.07
55.41 51.53 55.47 56.74 54.41 49.69 49.49 48.53 47.27 50.39 48.60 48.64 48.30 48.99 47.54 46.33 48.40 46.47 47.72 50.01 51.17 50.29 52.97 54.15 49.12 45.75 42.48 46.27 48.71 47.05 47.99 50.67 51.00 48.64 50.28 51.25 53.02 57.96 60.74 62.40 64.16 67.74 69.87 69.14 69.14
55.18 52.19 52.32 50.52 51.58 50.11 49.72 48.64 46.18 45.89 49.02 49.40 47.55 47.19 45.85 43.85 45.60 45.29 47.30 48.14 50.25 51.55 52.18 51.95 46.99 47.72 47.35 47.63 48.39 48.06 47.11 47.66 48.55 49.86 48.65 52.04 52.93 56.46 59.80 63.56 66.19 68.15 69.58 70.07 69.51
53.49 52.35 53.41 52.93 49.95 49.34 45.57 48.07 46.35 46.25 46.79 45.87 45.36 46.86 46.74 44.61 45.67 44.17 46.96 47.23 47.03 50.44 49.41 51.35 47.28 49.25 46.78 48.06 47.49 46.09 47.97 48.00 48.03 48.89 50.54 51.79 52.74 57.56 62.39 66.53 66.61 67.14 68.84 69.22 67.66
57.84 57.94 53.41 47.59 49.29 48.07 49.52 47.61 46.28 47.29 48.43 47.86 46.59 45.72 45.14 46.92 49.28 49.68 49.65 49.31 48.70 47.55 47.24 47.42 47.19 47.80 44.63 48.24 47.91 43.81 46.87 47.94 48.61 49.72 49.71 48.66 53.38 58.35 64.32 62.75 63.10 64.50 64.16 62.96 62.87
MSLP
1018.14 1017.65 1017.20 1016.78 1016.46 1016.04 1015.70 1015.44 1015.11 1014.62 1014.17 1013.84 1013.39 1013.00 1012.63 1012.04 1010.92 1009.90 1007.77 1007.18 1007.38 1008.32 1008.59 1007.71 1007.37 1007.09 1007.11 1006.35 1006.91 1005.90 1005.22 1004.41 1003.38 1003.57 1003.52 1003.91 1003.72 1004.51 1005.22 1005.63 1005.96 1006.44 1007.31 1008.76 1010.16
1018.18 1017.79 1017.37 1016.94 1016.57 1016.13 1015.76 1015.29 1014.92 1014.59 1014.14 1013.65 1013.25 1012.79 1012.45 1012.05 1010.23 1007.78 1007.39 1007.23 1007.75 1008.22 1008.34 1007.42 1006.54 1006.20 1006.93 1006.94 1006.74 1005.38 1004.13 1003.23 1003.85 1003.24 1003.29 1003.54 1003.95 1004.81 1005.08 1005.88 1006.32 1006.77 1008.02 1009.44 1010.16
1018.27 1017.88 1017.51 1017.05 1016.57 1016.17 1015.77 1015.18 1014.80 1014.52 1014.13 1013.61 1013.15 1012.69 1012.28 1011.85 1008.97 1005.98 1007.31 1007.40 1007.94 1007.98 1007.81 1007.82 1006.58 1006.23 1006.31 1006.18 1005.77 1004.96 1003.56 1003.75 1003.43 1003.54 1003.96 1003.94 1004.28 1004.37 1004.83 1005.18 1006.24 1007.42 1008.38 1009.54 1010.08
1018.28 1017.93 1017.54 1017.10 1016.59 1016.20 1015.59 1015.07 1014.69 1014.28 1013.93 1013.54 1013.06 1012.65 1012.16 1010.72 1007.23 1006.49 1007.48 1007.71 1008.05 1007.31 1007.09 1007.26 1006.26 1005.70 1004.81 1004.40 1005.06 1004.71 1004.29 1003.45 1003.32 1003.73 1004.14 1004.72 1005.29 1005.02 1005.32 1006.04 1006.44 1007.73 1008.65 1009.28 1009.78
1018.20 1017.80 1017.37 1016.83 1016.32 1015.77 1015.16 1014.93 1014.45 1014.10 1013.66 1013.35 1012.95 1012.63 1011.35 1008.89 1006.04 1006.64 1007.53 1007.94 1008.10 1007.44 1006.00 1005.97 1005.04 1003.99 1004.65 1003.37 1003.04 1004.01 1003.94 1003.67 1004.31 1003.96 1004.37 1005.38 1005.60 1006.09 1006.59 1006.75 1007.47 1007.97 1008.77 1009.18 1009.46
1017.97 1017.50 1017.00 1016.48 1015.88 1015.41 1015.10 1014.70 1014.10 1013.59 1013.25 1013.05 1012.79 1012.74 1010.97 1007.41 1005.97 1006.07 1006.50 1007.51 1006.80 1006.65 1005.55 1004.90 1004.23 1003.84 1003.06 1002.49 1003.15 1003.08 1002.62 1002.82 1003.18 1004.21 1004.74 1004.98 1005.95 1006.40 1007.02 1007.31 1007.86 1008.47 1008.66 1008.92 1009.19
1017.95 1017.51 1016.95 1016.38 1015.86 1015.44 1014.83 1014.28 1013.71 1013.17 1012.83 1012.74 1012.61 1011.97 1009.24 1006.53 1006.32 1005.95 1006.24 1006.50 1006.11 1005.64 1004.75 1004.45 1004.22 1004.01 1003.04 1002.37 1002.42 1002.05 1002.19 1002.48 1002.84 1003.88 1004.21 1004.69 1005.22 1006.08 1007.13 1007.39 1008.06 1008.70 1008.47 1008.69 1009.19
1017.97 1017.37 1016.88 1016.33 1015.73 1015.18 1014.58 1014.04 1013.40 1012.77 1012.56 1012.51 1012.44 1011.08 1007.72 1006.78 1006.70 1006.70 1005.88 1005.70 1005.73 1005.34 1004.96 1004.35 1004.71 1004.27 1003.35 1002.54 1001.93 1001.61 1001.60 1001.61 1002.50 1003.21 1003.84 1004.69 1005.29 1005.80 1006.97 1007.41 1008.25 1008.18 1008.31 1008.68 1009.15
1017.92 1017.38 1016.74 1016.18 1015.64 1015.10 1014.57 1013.89 1013.20 1012.80 1012.52 1012.42 1011.73 1009.55 1006.57 1007.65 1006.79 1006.19 1005.76 1005.34 1005.36 1005.44 1005.41 1005.15 1004.97 1003.80 1002.78 1002.25 1001.63 1001.42 1000.99 1002.07 1004.02 1002.75 1003.23 1003.95 1005.00 1005.72 1006.80 1006.97 1007.99 1007.60 1008.06 1008.39 1008.94
1017.78 1017.25 1016.67 1016.05 1015.39 1014.74 1014.16 1013.76 1012.99 1012.89 1012.17 1010.79 1009.70 1008.66 1006.63 1006.09 1006.04 1006.02 1005.86 1005.78 1005.14 1005.16 1005.03 1005.11 1004.40 1003.09 1002.32 1001.20 1000.31 1000.12 1000.05 1001.84 1000.67 1001.69 1002.79 1003.32 1003.52 1004.35 1005.64 1006.10 1006.89 1007.00 1007.63 1007.93 1008.49
1017.55 1017.04 1016.48 1015.87 1015.22 1014.52 1013.44 1012.54 1012.16 1011.53 1009.43 1008.06 1007.46 1006.77 1006.33 1006.37 1006.53 1006.18 1005.77 1005.89 1005.63 1004.90 1004.18 1004.04 1003.25 1001.88 1001.02 1000.45 999.43 999.87 999.24 999.18 1000.06 1001.37 1002.16 1002.10 1002.27 1003.27 1004.28 1005.14 1006.09 1006.58 1007.07 1007.43 1007.86
1017.27 1016.73 1016.17 1015.57 1014.97 1014.19 1013.74 1010.73 1011.30 1011.15 1009.03 1007.14 1007.07 1006.88 1006.69 1006.59 1006.09 1005.35 1005.35 1005.49 1005.08 1004.00 1003.85 1003.09 1001.88 1001.41 1000.98 1000.25 999.78 1000.38 999.51 999.15 1000.60 1001.02 1001.54 1000.57 1001.04 1001.53 1002.55 1003.86 1005.36 1006.23 1006.23 1006.70 1007.19
1017.01 1016.44 1015.85 1015.32 1014.70 1013.61 1011.58 1011.27 1010.88 1010.54 1008.77 1006.55 1006.59 1006.29 1006.18 1006.51 1005.56 1004.79 1005.04 1004.85 1004.02 1003.65 1002.62 1001.73 1000.99 1001.19 1000.53 1000.12 999.72 999.68 999.13 998.84 999.50 1000.48 1000.75 1000.36 1000.17 1000.17 1001.17 1002.83 1004.01 1004.96 1005.49 1005.91 1006.42
1016.83 1016.25 1015.71 1015.18 1014.93 1011.83 1010.85 1011.02 1010.49 1010.41 1007.71 1006.21 1005.79 1005.78 1005.91 1005.77 1005.05 1004.64 1004.11 1004.59 1003.80 1002.74 1002.30 1001.25 1000.81 1000.18 1000.22 999.69 999.52 998.64 998.81 998.91 999.93 999.70 999.07 999.31 998.50 999.07 999.93 1001.45 1002.48 1003.17 1004.49 1005.22 1005.66
1016.65 1016.11 1015.52 1015.25 1012.68 1010.78 1011.10 1010.71 1010.45 1010.08 1006.60 1006.26 1005.48 1006.00 1005.61 1005.33 1004.53 1003.69 1004.40 1004.17 1003.13 1002.44 1002.18 1000.33 1000.03 999.66 999.42 999.39 999.44 998.74 998.69 998.94 998.92 999.04 998.67 998.65 998.19 997.10 998.95 1000.00 1001.02 1002.10 1003.06 1004.12 1004.55
1016.39 1015.80 1015.13 1013.79 1011.97 1011.27 1011.02 1010.57 1010.33 1008.54 1006.34 1006.06 1005.81 1005.27 1004.80 1004.04 1004.23 1004.09 1004.28 1004.35 1003.45 1002.76 1001.63 1000.54 999.82 999.32 999.02 999.16 999.26 999.56 999.08 998.91 999.78 998.82 997.85 997.36 996.92 995.94 996.50 997.75 999.12 1000.73 1001.71 1002.48 1003.35
1016.02 1015.37 1014.87 1012.90 1011.15 1011.25 1010.98 1009.89 1008.14 1006.58 1007.46 1006.49 1006.34 1005.88 1005.03 1004.13 1003.86 1003.65 1003.50 1003.41 1003.05 1002.32 1001.11 1000.48 999.28 999.00 999.04 998.65 999.06 999.40 998.97 998.36 998.36 997.87 997.16 996.69 996.26 995.61 996.56 997.34 997.58 998.95 1000.41 1001.44 1002.24
1015.81 1015.41 1013.68 1012.32 1011.56 1011.27 1010.47 1008.75 1007.59 1007.92 1007.53 1007.78 1007.18 1006.45 1005.23 1004.51 1004.45 1003.77 1003.46 1002.56 1002.52 1001.90 1000.50 999.64 998.85 998.44 998.43 998.46 998.51 998.56 998.33 997.51 997.08 996.66 996.32 996.17 995.56 995.37 996.01 996.56 997.01 997.78 999.34 1000.61 1001.38
1015.71 1013.70 1011.54 1011.24 1011.23 1011.29 1009.77 1007.50 1008.16 1008.89 1009.09 1008.43 1007.41 1006.02 1005.29 1004.75 1004.98 1004.16 1003.36 1002.49 1001.61 1001.75 1000.57 999.27 998.17 998.32 998.22 998.98 998.97 998.13 997.89 998.02 997.11 996.38 995.50 994.58 994.89 995.52 996.15 996.60 996.70 997.38 998.11 999.37 1000.42
1014.44 1011.65 1010.80 1011.07 1010.67 1010.35 1008.76 1009.05 1009.02 1009.87 1009.82 1008.96 1007.85 1007.45 1006.46 1005.80 1005.45 1004.47 1003.12 1002.89 1002.18 1001.59 1000.89 1000.00 998.65 997.79 997.65 998.83 998.76 998.06 998.18 998.16 997.31 996.24 995.34 994.49 994.40 994.39 994.90 996.04 996.59 997.10 997.70 998.49 999.58
1014.10 1010.76 1010.47 1010.63 1010.26 1009.32 1007.72 1008.81 1009.68 1010.09 1010.51 1009.84 1009.03 1008.63 1008.01 1007.29 1007.02 1005.80 1004.44 1004.96 1004.81 1003.66 1002.33 1001.59 1000.09 997.92 997.19 997.31 997.63 997.91 997.38 997.34 997.34 996.90 995.66 994.77 993.84 993.99 994.94 995.50 996.41 996.89 997.36 997.90 998.74
1012.48 1009.98 1010.46 1010.51 1009.62 1008.82 1008.34 1009.84 1011.34 1010.25 1010.45 1010.20 1010.16 1009.75 1009.42 1008.94 1008.20 1006.98 1005.90 1006.89 1006.63 1005.43 1004.07 1002.76 1000.75 998.86 996.91 997.28 998.19 997.63 997.62 997.59 996.79 996.78 996.10 995.10 993.92 993.76 994.33 995.66 996.84 997.25 997.87 997.81 998.06
1011.86 1010.19 1010.38 1010.20 1008.51 1007.98 1009.65 1010.05 1010.81 1010.76 1010.66 1010.91 1010.69 1010.45 1010.76 1010.04 1009.30 1008.04 1007.01 1007.04 1007.31 1006.51 1006.18 1004.67 1001.83 1000.20 998.32 997.33 997.91 998.13 997.78 997.49 997.37 997.00 996.03 995.50 994.63 994.73 995.34 996.39 997.50 998.15 998.94 999.07 998.24
1012.53 1009.95 1009.64 1010.04 1010.04 1009.84 1009.79 1009.93 1010.58 1011.25 1011.61 1011.87 1011.45 1011.24 1010.60 1010.25 1009.44 1008.48 1007.74 1007.31 1007.72 1007.61 1007.64 1006.74 1003.46 1001.10 998.93 997.88 997.79 998.32 998.21 997.91 997.46 996.80 996.05 995.38 995.13 995.16 996.37 997.50 998.57 999.71 1000.22 999.93 999.61
1012.94 1011.25 1011.59 1009.63 1009.72 1010.56 1010.97 1010.94 1010.93 1010.87 1011.64 1011.77 1011.44 1011.23 1011.31 1010.96 1009.80 1009.06 1008.65 1008.01 1008.59 1007.87 1007.33 1006.08 1004.09 1002.67 1000.71 998.87 997.92 997.54 997.94 997.91 997.20 996.98 996.24 995.82 995.62 995.62 996.86 997.80 999.82 1000.97 1001.63 1001.67 1001.76
1013.58 1012.55 1011.93 1011.25 1011.75 1011.38 1011.64 1010.96 1011.70 1011.75 1012.11 1011.76 1011.89 1011.88 1012.07 1011.53 1011.14 1010.48 1010.02 1009.85 1009.01 1007.90 1007.61 1006.48 1004.85 1003.48 1001.24 1000.00 998.93 997.75 997.10 997.31 997.63 997.26 996.98 996.72 996.35 996.88 998.39 1000.17 1002.21 1003.23 1003.53 1004.64 1005.66
1014.63 1013.93 1013.08 1011.99 1011.16 1011.43 1010.98 1011.82 1012.20 1012.72 1012.42 1012.88 1012.78 1012.69 1012.30 1012.00 1012.25 1012.14 1011.57 1010.85 1010.08 1009.32 1008.59 1007.85 1006.33 1003.99 1001.75 1000.78 999.81 998.31 997.58 996.95 997.17 997.43 997.49 997.46 997.93 998.60 1000.72 1003.37 1005.04 1006.05 1007.11 1007.94 1008.53
Wind_Speed
15 17 17 17 17 17 17 17 17 17 17 17 17 16 15 16 20 9 11 9 8 17 4 9 12 7 5 3 4 6 3 2 9 3 10 9 11 9 12 12 9 3 20 22 20
16 16 17 17 17 17 17 17 17 17 17 18 17 17 16 15 15 15 8 12 26 18 11 9 11 12 3 2 4 6 2 7 1 2 11 7 10 14 11 11 10 16 23 22 20
16 16 16 17 17 17 17 17 17 16 17 17 17 18 17 16 14 4 4 15 19 19 11 5 8 9 2 7 5 4 1 7 3 8 8 6 10 4 10 9 14 17 22 21 19
16 16 16 16 16 16 17 17 18 18 17 16 17 17 17 10 7 11 8 10 16 18 16 6 11 2 17 6 11 8 4 3 9 11 8 7 3 3 10 9 13 18 21 19 19
16 16 16 17 17 18 18 18 18 17 16 15 15 14 11 10 14 12 10 11 18 17 14 13 17 10 4 11 11 6 10 11 7 6 10 8 4 7 8 11 16 18 19 18 17
17 18 18 19 19 19 19 18 18 17 14 13 12 12 9 16 5 5 7 14 16 17 15 15 9 11 12 6 11 17 11 10 10 9 9 9 6 7 8 15 17 17 18 17 16
17 17 18 19 20 20 20 20 19 15 12 10 10 8 12 9 5 2 8 14 16 16 14 12 10 11 10 8 2 7 10 9 9 11 11 9 10 8 13 15 16 16 16 15 15
17 18 18 19 20 19 20 20 17 11 5 8 7 11 11 7 7 5 11 12 14 11 13 6 7 14 16 3 7 13 11 12 12 12 9 10 6 14 15 16 17 18 16 14 15
17 17 18 18 18 18 18 18 14 5 5 7 9 10 7 3 9 13 12 13 12 11 11 9 10 15 14 15 12 11 6 8 10 8 11 11 9 16 14 16 18 18 17 15 15
16 16 18 17 18 19 18 11 5 6 9 9 7 8 6 2 3 6 13 14 12 13 13 13 11 15 16 15 14 18 16 14 7 13 7 9 6 16 16 18 19 19 18 17 16
17 18 18 17 19 19 16 7 8 9 15 12 8 12 7 1 6 12 11 13 15 16 18 19 16 19 21 21 21 9 14 10 8 6 10 12 8 15 15 16 17 16 18 18 18
19 18 17 17 18 18 10 6 7 7 9 8 5 8 8 9 8 12 14 15 20 21 21 22 23 23 21 20 17 5 16 9 7 11 10 9 11 14 18 15 18 17 21 20 19
17 16 16 17 18 10 6 7 7 6 9 9 2 5 3 5 11 15 16 19 19 24 25 26 23 24 22 22 19 20 19 12 7 8 13 12 13 14 17 17 24 25 20 20 21
17 16 16 16 7 4 1 5 8 3 9 9 6 5 7 4 11 15 15 18 24 26 27 26 27 24 24 22 21 21 18 16 5 9 11 12 6 9 16 18 20 23 19 20 21
16 15 14 10 10 3 7 7 8 7 5 6 3 4 7 10 16 11 17 17 23 25 23 26 28 28 25 25 22 18 16 20 16 13 17 20 8 9 17 18 20 20 25 23 24
16 14 11 7 6 5 8 8 7 10 5 3 4 8 13 10 9 13 8 17 17 22 26 28 24 26 27 22 23 20 21 13 15 15 16 18 14 11 18 18 20 21 21 23 23
16 13 9 8 7 9 8 10 10 5 5 5 11 13 15 16 8 13 16 17 19 17 25 26 32 25 27 22 20 26 21 14 13 14 14 19 15 10 8 5 12 21 22 23 23
15 9 7 6 7 8 9 12 3 6 5 11 12 15 19 7 17 7 15 18 23 27 18 22 23 32 23 22 25 26 23 17 20 14 16 18 8 8 5 3 13 16 22 23 22
11 8 7 3 6 6 11 7 8 5 7 8 14 12 16 1 3 15 15 18 18 23 26 22 27 21 25 23 24 24 26 24 25 18 14 15 18 11 8 9 9 11 21 23 24
7 6 3 5 8 9 11 5 2 4 9 7 12 7 12 13 11 19 14 7 10 19 25 21 22 28 30 22 25 30 20 22 19 23 21 17 12 13 19 12 11 14 14 18 22
8 6 7 4 8 11 6 6 0 5 7 7 12 13 15 14 11 20 18 9 12 15 14 15 20 20 24 25 25 21 23 18 21 20 18 16 13 9 5 14 11 8 11 16 19
12 7 5 5 10 1 3 2 3 3 2 7 7 9 14 12 16 19 18 13 12 13 15 18 19 15 19 18 25 23 24 26 15 23 17 18 11 8 19 14 7 5 7 7 18
7 4 5 7 8 2 7 4 4 7 6 7 8 6 11 14 17 17 16 4 7 14 12 14 16 16 21 21 17 21 26 24 23 19 22 16 15 12 10 11 8 10 4 5 11
6 4 6 3 4 7 1 5 5 8 10 5 11 9 12 13 14 16 17 10 8 15 8 9 16 17 17 18 18 25 23 28 25 19 18 19 19 14 15 16 9 10 7 3 4
2 5 5 3 4 6 4 4 7 3 2 9 9 8 8 13 15 14 18 8 14 5 8 11 16 20 26 26 23 21 25 27 25 25 25 19 19 18 13 13 15 11 9 7 5
7 5 4 2 2 7 7 3 7 4 7 9 5 11 12 13 14 17 15 13 14 14 7 17 13 17 21 21 26 22 19 26 29 28 25 25 21 15 8 19 15 10 12 16 13
2 2 7 8 6 6 4 5 5 5 2 4 9 11 12 11 14 16 18 18 19 17 15 15 15 15 14 17 21 24 22 17 20 26 23 21 20 12 19 17 12 11 11 11 9
Wind_Direction
347 344 342 343 341 339 335 333 332 332 332 329 326 322 319 317 301 228 264 87 167 160 200 193 196 181 312 113 293 278 278 112 91 161 137 171 115 82 105 130 137 51 133 132 147
344 341 339 338 334 334 328 328 329 328 327 325 322 318 318 322 289 262 109 116 146 155 164 200 191 172 223 246 254 271 350 55 152 85 133 134 125 125 137 121 126 110 116 132 150
340 339 336 333 332 329 324 326 324 322 322 319 318 315 318 315 273 246 139 138 161 180 149 227 280 178 238 220 241 280 38 81 148 107 104 124 123 160 126 142 139 139 141 151 156
338 336 333 330 327 323 324 324 320 318 316 312 311 312 317 272 253 66 143 150 173 196 154 197 241 286 248 164 210 235 355 354 88 150 148 94 63 163 59 66 130 148 147 154 163
337 334 333 331 327 327 328 320 316 311 306 301 302 315 299 222 253 93 140 158 181 217 232 196 247 280 253 192 206 127 143 230 191 138 110 135 136 102 94 120 129 145 152 159 164
335 335 335 332 330 329 322 319 315 307 297 285 288 308 242 251 42 115 154 171 188 214 228 234 256 310 299 303 80 175 147 137 132 128 148 138 130 122 132 135 144 149 161 166 158
333 333 334 330 327 324 321 321 315 305 287 263 268 273 269 256 354 246 186 197 211 221 237 238 278 285 314 259 181 131 161 167 162 154 150 214 165 171 152 145 147 171 167 163 160
331 330 329 326 324 324 322 320 313 312 269 237 250 253 268 43 323 246 217 205 216 231 258 293 297 273 277 164 219 207 205 192 146 167 128 225 191 133 168 160 159 189 170 167 163
329 328 326 325 323 320 315 312 298 299 238 209 225 238 251 141 217 226 230 224 213 229 241 270 267 257 230 245 221 225 217 119 240 195 132 227 156 143 175 181 171 187 176 176 169
329 330 329 324 319 316 311 282 283 279 222 225 264 250 222 277 29 261 216 235 224 221 227 220 238 242 237 223 223 212 223 195 189 166 198 186 172 151 178 195 174 186 184 180 174
334 333 328 321 316 311 312 207 220 193 224 296 330 305 270 230 244 231 217 209 233 223 218 206 223 224 231 237 246 321 290 204 144 93 205 202 243 157 170 202 171 196 186 185 179
333 329 323 317 311 306 282 5 43 341 300 273 283 266 268 283 277 229 193 209 210 222 218 224 225 224 232 239 253 260 268 237 138 149 240 205 209 187 166 194 177 204 183 188 186
328 324 319 314 315 285 27 29 325 304 260 136 348 307 27 257 249 258 194 218 216 223 217 226 217 230 233 240 236 206 233 227 247 140 225 268 245 215 169 184 173 197 194 192 190
327 320 313 313 294 35 116 334 303 316 271 124 150 112 233 303 258 232 219 230 230 228 229 231 237 214 232 231 235 236 223 266 180 239 264 192 269 193 173 182 193 196 188 192 192
320 314 301 283 326 270 355 301 317 245 272 63 68 4 259 252 326 223 228 225 239 231 232 231 226 234 219 232 231 251 246 223 240 259 253 218 247 178 170 188 190 201 177 199 190
323 314 301 221 235 3 302 294 246 234 79 310 320 328 296 286 247 257 216 232 249 249 239 244 233 235 232 223 229 239 251 236 252 240 248 247 239 189 188 189 185 190 204 196 191
325 315 284 295 354 338 303 249 238 5 56 10 344 307 306 282 317 251 242 213 227 221 233 233 240 222 236 224 219 229 226 231 220 226 240 236 226 231 106 156 185 180 195 197 195
323 309 202 284 296 304 265 247 322 53 358 336 306 299 280 344 297 253 259 251 212 245 233 223 219 227 210 233 223 217 231 231 219 221 227 228 226 247 235 319 168 183 185 191 199
318 214 246 8 318 284 265 268 35 11 352 320 298 262 292 237 232 286 268 257 241 214 248 242 229 219 231 219 239 223 223 242 253 242 256 212 195 168 144 197 168 199 177 187 194
264 249 122 302 291 270 262 358 76 350 325 308 291 326 308 325 320 314 282 37 320 319 226 259 269 225 214 212 228 243 216 223 240 247 248 239 198 228 179 203 192 184 184 188 190
250 245 88 283 275 251 302 65 177 74 333 329 341 315 307 313 322 299 302 53 1 314 302 264 260 270 208 199 219 218 234 221 238 235 247 244 232 180 128 170 163 180 198 194 192
278 252 87 272 260 285 37 18 13 304 222 300 289 305 302 328 304 298 302 13 358 319 280 254 262 247 227 209 215 236 215 234 232 227 241 260 251 205 175 140 134 215 23 305 194
272 348 115 275 283 161 111 205 284 313 329 317 297 312 304 292 294 271 329 103 352 335 353 341 249 252 251 194 201 229 242 233 235 239 229 231 241 98 85 78 108 57 36 251 241
280 241 150 222 330 302 36 239 279 142 293 294 294 281 277 288 287 279 280 311 334 302 332 285 267 257 248 231 210 216 236 238 232 238 240 226 232 165 163 152 134 86 39 80 266
308 59 359 321 97 339 316 3 283 267 209 278 292 235 326 302 300 293 273 302 308 148 284 281 263 258 260 269 259 213 215 237 236 237 238 232 232 238 196 108 88 85 68 82 124
323 324 175 82 258 271 137 170 312 324 291 299 275 323 310 289 296 301 310 297 299 298 326 307 297 272 265 256 259 270 244 211 227 238 240 247 246 215 123 87 80 65 85 52 29
19 211 279 122 224 265 26 0 325 317 261 287 309 302 291 321 333 307 295 284 275 281 282 282 276 276 252 246 256 246 240 237 223 227 238 236 245 255 95 83 61 66 66 61 39